Flag for U.S.A. Weather past 2 weeks in St. Petersburg, Florida, U.S.A.

83 °F

Passing clouds.

Feels Like: 86 °F
Forecast: 73 / 83 °F
Wind: 6 mph from West

Location: Whitted Airport

Current Time: Oct 13, 2015 at 7:20:02 PM

Latest Report: Oct 13, 2015 at 5:53 PM

Visibility: 10 mi

Pressure: 29.89 "Hg

Humidity: 61%

Dew point: 68 °F

Location of St. PetersburgLocation

Historic Weather in St. Petersburg — Graph


St. Petersburg temperature yesterday

Maximum temperature yesterday: 81 °F (at 2:53 PM)
Minimum temperature yesterday: 74 °F (at 2:53 AM)
Average temperature yesterday: 77 °F

Past Weeks' High & Low Weather Summary

High88 °F (Sep 30, 12:53 PM)90% (Sep 28, 10:53 PM)30.06 "Hg (Sep 28, 10:53 PM)
Low71 °F (Oct 4, 7:53 AM)49% (Oct 12, 4:53 PM)29.52 "Hg (Oct 2, 3:53 PM)
Average79 °F74%29.82 "Hg
* Reported Sep 28 5:53 PM — Oct 13 5:53 PM, St. Petersburg, Weather by CustomWeather, © 2015

Note: Actual official high and low records may vary slightly from our data, if they occured in-between our weather recording intervals... More about our weather records


St. Petersburg weather history for previous 24 hours

Time TempWeatherWind HumidityBarometerVisibility
5:53 PM
Tue, Oct 13
83 °FPassing clouds.6 mph61%29.89 "Hg10 mi
4:53 PM84 °FPartly sunny.7 mph55%29.89 "Hg10 mi
3:53 PM83 °FOvercast.6 mph59%29.90 "Hg10 mi
2:53 PM82 °FPartly sunny.8 mph67%29.90 "Hg10 mi
1:53 PM80 °FBroken clouds.7 mph71%29.93 "Hg10 mi
12:53 PM82 °FMore clouds than sun.6 mph65%29.94 "Hg10 mi
11:53 AM80 °FCloudy.5 mph69%29.96 "Hg10 mi
10:53 AM81 °FBroken clouds.8 mph72%29.96 "Hg10 mi
9:53 AM80 °FPassing clouds.7 mph74%29.95 "Hg10 mi
8:53 AM79 °FPassing clouds.5 mph77%29.94 "Hg10 mi
7:53 AM77 °FClear.No wind82%29.91 "Hg10 mi
6:53 AM78 °FPassing clouds.No wind71%29.90 "Hg10 mi
5:53 AM76 °FPassing clouds.5 mph80%29.89 "Hg10 mi
4:53 AM76 °FPassing clouds.5 mph77%29.88 "Hg10 mi
3:53 AM76 °FPartly cloudy.8 mph77%29.89 "Hg10 mi
2:53 AM76 °FPassing clouds.7 mph77%29.90 "Hg10 mi
1:53 AM76 °FPassing clouds.3 mph77%29.91 "Hg10 mi
12:53 AM76 °FClear.No wind69%29.91 "Hg10 mi
11:53 PM
Mon, Oct 12
76 °FClear.No wind69%29.91 "Hg10 mi
10:53 PM76 °FClear.3 mph69%29.91 "Hg10 mi
9:53 PM77 °FClear.3 mph66%29.91 "Hg10 mi
8:53 PM78 °FClear.5 mph62%29.90 "Hg10 mi
7:53 PM79 °FSunny.5 mph58%29.88 "Hg10 mi
Weather by CustomWeather, © 2015

See weather overviewHow to use our weather pages